Montpelier, VT

10:30 AM EST on November 13, 2019 (GMT -0500)
Knapp State

Weather History for KMPV - August, 2019

Change the Weather History Date:

Saturday, August 31, 2019

  Actual Average Record
Temperature  
Mean Temperature 58 °F 63 °F  
Max Temperature 69 °F 74 °F 89 °F (1993)
Min Temperature 47 °F 51 °F 31 °F (1965)
Degree Days  
Heating Degree Days 7 4  
Month to date heating degree days 59 69  
Since 1 June heating degree days 212 229  
Since 1 July heating degree days 68 108  
Cooling Degree Days 0 2  
Month to date cooling degree days 53 76  
Year to date cooling degree days 211 244  
Since 1 June cooling degree days 210 234  
Growing Degree Days 8 (Base 50)    
Moisture  
Dew Point 48 °F    
Average Humidity 73    
Maximum Humidity 93    
Minimum Humidity 52    
Precipitation  
Precipitation 0.00 in 0.10 in 2.21 in (2005)
Month to date precipitation 4.25 4.01  
Year to date precipitation 34.80 24.80  
Sea Level Pressure  
Sea Level Pressure 30.26 in    
Wind  
Wind Speed 3 mph ()    
Max Wind Speed 16 mph    
Max Gust Speed 22 mph    
Visibility 10.0 miles    
Events      
T = Trace of Precipitation, MM = Missing Value Source: Averaged Metar Reports

Daily Weather History Graph

Daily Weather History Graph

Search for Another Location

Airport or City:

Astronomy

Aug. 31, 2019 Rise Set
Actual Time 6:11 AM EDT 7:28 PM EDT
Civil Twilight 5:41 AM EDT 7:58 PM EDT
Nautical Twilight 5:05 AM EDT 8:34 PM EDT
Astronomical Twilight 4:27 AM EDT 9:12 PM EDT
Moon 7:25 AM EDT (8/31) 8:37 PM EDT (8/31)
Length of Visible Light 14h 16m
Length of Day
13h 16m
New Moon, 2% of the Moon is Illuminated
Aug 31
New Moon
Sep 5
First Quarter
Sep 14
Full
Sep 21
Last Quarter
Sep 28
New

Hourly Weather History & Observations

Time (EDT) Temp. Dew Point Humidity Pressure Visibility Wind Dir Wind Speed Gust Speed Precip Events Conditions
12:51 AM 52.0 °F 48.0 °F 86% 30.14 in 10.0 mi Calm Calm - N/A   Clear
1:51 AM 50.0 °F 46.0 °F 86% 30.14 in 10.0 mi South 4.6 mph - N/A   Clear
2:51 AM 51.1 °F 46.9 °F 86% 30.15 in 10.0 mi Calm Calm - N/A   Partly Cloudy
3:51 AM 50.0 °F 48.0 °F 93% 30.16 in 10.0 mi Calm Calm - N/A   Clear
4:51 AM 50.0 °F 46.9 °F 89% 30.18 in 10.0 mi Calm Calm - N/A   Clear
5:51 AM 48.0 °F 46.0 °F 93% 30.20 in 10.0 mi South 4.6 mph - N/A   Clear
6:51 AM 50.0 °F 48.0 °F 93% 30.22 in 10.0 mi Calm Calm - N/A   Partly Cloudy
7:51 AM 59.0 °F 50.0 °F 72% 30.23 in 10.0 mi Calm Calm - N/A   Mostly Cloudy
8:51 AM 61.0 °F 48.9 °F 64% 30.24 in 10.0 mi West 6.9 mph - N/A   Clear
9:51 AM 63.0 °F 50.0 °F 63% 30.25 in 10.0 mi WNW 8.1 mph - N/A   Mostly Cloudy
10:51 AM 63.0 °F 48.9 °F 60% 30.26 in 10.0 mi WNW 10.4 mph - N/A   Overcast
11:51 AM 63.0 °F 48.9 °F 60% 30.27 in 10.0 mi WNW 11.5 mph 17.3 mph N/A   Overcast
12:51 PM 64.9 °F 51.1 °F 61% 30.27 in 10.0 mi West 8.1 mph - N/A   Mostly Cloudy
1:51 PM 64.9 °F 50.0 °F 58% 30.28 in 10.0 mi WNW 8.1 mph - N/A   Mostly Cloudy
2:51 PM 66.0 °F 48.9 °F 54% 30.27 in 10.0 mi WNW 9.2 mph - N/A   Overcast
3:51 PM 66.0 °F 48.0 °F 52% 30.28 in 10.0 mi NNW 10.4 mph 17.3 mph N/A   Mostly Cloudy
4:51 PM 66.9 °F 48.9 °F 52% 30.29 in 10.0 mi NNW 6.9 mph - N/A   Overcast
5:51 PM 64.9 °F 48.0 °F 54% 30.32 in 10.0 mi NNW 8.1 mph - N/A   Overcast
6:51 PM 62.1 °F 48.0 °F 60% 30.34 in 10.0 mi NW 6.9 mph - N/A   Partly Cloudy
7:51 PM 57.9 °F 48.0 °F 70% 30.34 in 10.0 mi WNW 3.5 mph - N/A   Clear
8:51 PM 53.1 °F 48.0 °F 83% 30.36 in 10.0 mi Calm Calm - N/A   Clear
9:51 PM 52.0 °F 48.0 °F 86% 30.37 in 10.0 mi Calm Calm - N/A   Clear
10:51 PM 50.0 °F 46.9 °F 89% 30.38 in 10.0 mi Calm Calm - N/A   Clear
11:51 PM 48.0 °F 46.0 °F 93% 30.39 in 10.0 mi Calm Calm - N/A   Clear